| time (UTC) | temp F | wind direction | speed MPH | gust MPH | rain 1hr in | rain 24hr in | rain mn in | humidity % | barometer mb |
| 20260906061609 | 58 | 273 | 4.0 | 8.0 | 0.00 | 0.00 | 0.00 | 75 | 1026.8 |
| 20260906060109 | 56 | 316 | 3.0 | 6.0 | 0.00 | 0.00 | 0.00 | 76 | 1026.7 |
| 20260906054609 | 55 | 312 | 4.0 | 6.0 | 0.00 | 0.02 | 0.00 | 78 | 1026.6 |
| 20260906053109 | 53 | 281 | 2.0 | 4.0 | 0.00 | 0.02 | 0.00 | 82 | 1026.5 |
| 20260906051609 | 52 | 317 | 1.0 | 3.0 | 0.00 | 0.02 | 0.00 | 83 | 1026.3 |
| 20260906050109 | 51 | 306 | 2.0 | 3.0 | 0.00 | 0.02 | 0.00 | 84 | 1026.0 |
| 20260906044610 | 51 | 299 | 2.0 | 3.0 | 0.00 | 0.02 | 0.00 | 83 | 1025.9 |
| 20260906043114 | 51 | 284 | 0.0 | 2.0 | 0.00 | 0.02 | 0.00 | 83 | 1025.8 |
| 20260906041614 | 51 | 292 | 2.0 | 3.0 | 0.00 | 0.02 | 0.00 | 84 | 1025.7 |
| 20260906040113 | 50 | 317 | 3.0 | 4.0 | 0.00 | 0.02 | 0.00 | 85 | 1025.5 |
| 20260906034613 | 50 | 297 | 0.0 | 0.0 | 0.00 | 0.02 | 0.00 | 84 | 1025.6 |
| 20260906033113 | 50 | 296 | 1.0 | 3.0 | 0.00 | 0.02 | 0.00 | 83 | 1025.4 |
| 20260906024613 | 51 | 296 | 1.0 | 3.0 | 0.00 | 0.03 | 0.00 | 82 | 1025.0 |
| 20260906023113 | 51 | 312 | 2.0 | 3.0 | 0.00 | 0.03 | 0.00 | 82 | 1024.9 |
| 20260906021614 | 51 | 311 | 0.0 | 0.0 | 0.00 | 0.03 | 0.00 | 81 | 1024.9 |
| 20260906013112 | 53 | 312 | 0.0 | 0.0 | 0.00 | 0.03 | 0.00 | 80 | 1024.6 |
| 20260906010112 | 52 | 312 | 2.0 | 3.0 | 0.00 | 0.03 | 0.00 | 81 | 1024.2 |
| 20260906004612 | 52 | 312 | 1.0 | 2.0 | 0.00 | 0.03 | 0.00 | 81 | 1024.2 |
| 20260906003112 | 58 | 334 | 2.0 | 8.0 | 0.02 | 0.03 | 0.00 | 90 | 1018.2 |
| 20260906001612 | 54 | 312 | 0.0 | 0.0 | 0.00 | 0.03 | 0.00 | 79 | 1024.0 |
| 20260906000112 | 54 | 312 | 0.0 | 0.0 | 0.00 | 0.03 | 0.00 | 77 | 1023.9 |
| 20260905234612 | 55 | 312 | 1.0 | 2.0 | 0.00 | 0.03 | 0.00 | 76 | 1023.6 |
| 20260905231611 | 54 | 313 | 0.0 | 0.0 | 0.00 | 0.03 | 0.00 | 79 | 1023.3 |
| 20260905230111 | 55 | 313 | 0.0 | 0.0 | 0.00 | 0.03 | 0.00 | 79 | 1023.3 |
| 20260905224611 | 56 | 313 | 0.0 | 0.0 | 0.00 | 0.03 | 0.00 | 78 | 1023.3 |
| 20260905221611 | 57 | 313 | 0.0 | 0.0 | 0.00 | 0.03 | 0.00 | 76 | 1023.1 |
| 20260905220111 | 58 | 313 | 0.0 | 0.0 | 0.00 | 0.03 | 0.00 | 75 | 1023.2 |
| 20260905214611 | 58 | 313 | 0.0 | 0.0 | 0.00 | 0.03 | 0.03 | 73 | 1023.0 |
| 20260905211611 | 60 | 313 | 0.0 | 0.0 | 0.00 | 0.03 | 0.03 | 72 | 1022.6 |
| 20260905210110 | 60 | 313 | 0.0 | 0.0 | 0.00 | 0.03 | 0.03 | 71 | 1022.5 |
| 20260905204610 | 61 | 313 | 0.0 | 0.0 | 0.00 | 0.03 | 0.03 | 69 | 1022.4 |
| 20260905203110 | 62 | 313 | 0.0 | 0.0 | 0.00 | 0.03 | 0.03 | 64 | 1022.2 |
| 20260905201610 | 64 | 313 | 0.0 | 0.0 | 0.00 | 0.03 | 0.03 | 62 | 1022.2 |
| 20260905200110 | 65 | 319 | 1.0 | 5.0 | 0.00 | 0.03 | 0.03 | 60 | 1022.2 |
| 20260905194611 | 66 | 329 | 4.0 | 4.0 | 0.00 | 0.03 | 0.03 | 59 | 1021.7 |
| 20260905193110 | 67 | 349 | 6.0 | 9.0 | 0.00 | 0.03 | 0.03 | 58 | 1021.4 |
| 20260905191610 | 67 | 336 | 5.0 | 11.0 | 0.00 | 0.03 | 0.03 | 58 | 1021.4 |
| 20260905190109 | 67 | 317 | 2.0 | 4.0 | 0.00 | 0.03 | 0.03 | 62 | 1021.2 |
| 20260905184609 | 67 | 242 | 1.0 | 2.0 | 0.00 | 0.03 | 0.03 | 60 | 1020.7 |
| 20260905183109 | 67 | 246 | 2.0 | 8.0 | 0.00 | 0.03 | 0.03 | 58 | 1020.4 |
| 20260905181610 | 68 | 292 | 3.0 | 7.0 | 0.00 | 0.03 | 0.03 | 57 | 1020.4 |
| 20260905180109 | 68 | 301 | 3.0 | 6.0 | 0.00 | 0.03 | 0.03 | 56 | 1020.3 |
| 20260905174609 | 69 | 298 | 2.0 | 9.0 | 0.00 | 0.03 | 0.03 | 55 | 1020.1 |
| 20260905173110 | 69 | 318 | 2.0 | 4.0 | 0.00 | 0.03 | 0.03 | 53 | 1019.9 |
| 20260905171609 | 69 | 281 | 2.0 | 4.0 | 0.00 | 0.03 | 0.03 | 53 | 1019.7 |
| 20260905164608 | 71 | 255 | 5.0 | 13.0 | 0.00 | 0.03 | 0.03 | 50 | 1019.6 |
| 20260905163108 | 71 | 261 | 12.0 | 20.0 | 0.00 | 0.03 | 0.03 | 49 | 1019.5 |
| 20260905160108 | 72 | 254 | 9.0 | 16.0 | 0.00 | 0.03 | 0.03 | 47 | 1019.2 |
| 20260905154608 | 71 | 249 | 9.0 | 16.0 | 0.00 | 0.03 | 0.03 | 48 | 1019.3 |
| 20260905151608 | 73 | 304 | 5.0 | 17.0 | 0.00 | 0.03 | 0.03 | 47 | 1019.0 |
| 20260905150108 | 73 | 242 | 6.0 | 13.0 | 0.00 | 0.03 | 0.03 | 46 | 1018.9 |
| 20260905144608 | 74 | 339 | 9.0 | 17.0 | 0.00 | 0.03 | 0.03 | 44 | 1019.0 |
| 20260905143108 | 74 | 259 | 10.0 | 18.0 | 0.00 | 0.03 | 0.03 | 44 | 1019.0 |
| 20260905140113 | 75 | 263 | 8.0 | 13.0 | 0.00 | 0.03 | 0.03 | 44 | 1019.0 |
| 20260905134614 | 75 | 286 | 7.0 | 16.0 | 0.00 | 0.03 | 0.03 | 46 | 1018.7 |
| 20260905131614 | 74 | 224 | 4.0 | 15.0 | 0.00 | 0.03 | 0.03 | 47 | 1019.2 |
| 20260905130112 | 75 | 302 | 8.0 | 13.0 | 0.00 | 0.03 | 0.03 | 47 | 1019.1 |
| 20260905124612 | 74 | 263 | 10.0 | 17.0 | 0.00 | 0.03 | 0.03 | 47 | 1019.3 |
| 20260905121612 | 74 | 316 | 12.0 | 17.0 | 0.00 | 0.03 | 0.03 | 48 | 1019.4 |
| 20260905120112 | 74 | 323 | 6.0 | 16.0 | 0.00 | 0.03 | 0.03 | 49 | 1019.3 |
| 20260905114612 | 74 | 272 | 7.0 | 15.0 | 0.00 | 0.03 | 0.03 | 49 | 1019.2 |
| 20260905113111 | 73 | 207 | 5.0 | 13.0 | 0.00 | 0.03 | 0.03 | 53 | 1019.2 |
| 20260905111611 | 72 | 322 | 6.0 | 12.0 | 0.00 | 0.03 | 0.03 | 54 | 1019.2 |
| 20260905110111 | 72 | 312 | 5.0 | 12.0 | 0.00 | 0.03 | 0.03 | 54 | 1019.3 |
| 20260905104611 | 71 | 242 | 5.0 | 8.0 | 0.00 | 0.03 | 0.03 | 59 | 1019.2 |
| 20260905101611 | 70 | 325 | 4.0 | 10.0 | 0.00 | 0.03 | 0.03 | 62 | 1019.5 |
| 20260905100111 | 69 | 261 | 4.0 | 10.0 | 0.00 | 0.03 | 0.03 | 66 | 1019.7 |
| 20260905094611 | 68 | 232 | 3.0 | 10.0 | 0.00 | 0.03 | 0.03 | 69 | 1019.6 |
| 20260905093111 | 67 | 338 | 3.0 | 11.0 | 0.00 | 0.03 | 0.03 | 71 | 1019.7 |
| 20260905091610 | 66 | 277 | 1.0 | 7.0 | 0.00 | 0.03 | 0.03 | 75 | 1019.8 |
| 20260905090110 | 64 | 229 | 3.0 | 8.0 | 0.00 | 0.03 | 0.03 | 79 | 1019.9 |
| 20260905084612 | 63 | 239 | 4.0 | 8.0 | 0.00 | 0.03 | 0.03 | 82 | 1019.9 |
| 20260905081610 | 60 | 197 | 1.0 | 3.0 | 0.00 | 0.03 | 0.03 | 87 | 1019.8 |
| 20260905064609 | 58 | 198 | 2.0 | 7.0 | 0.02 | 0.03 | 0.03 | 88 | 1017.5 |
| 20260905063109 | 58 | 206 | 2.0 | 7.0 | 0.01 | 0.02 | 0.02 | 85 | 1018.5 |